Le nostre stazioni meteo in Italia

Pubblicità
Il mio iltempo24.it
Trapani/Birgi, Italia (16429): Temperatura & dewpoint: 01.12.2019 10:00:00 - 07.12.2019 10:00:00 (CET)Trapani/Birgi, Italia (16429): velocità del vento: 01.12.2019 10:00:00 - 07.12.2019 10:00:00 (CET)Trapani/Birgi, Italia (16429): direzione del vento: 01.12.2019 10:00:00 - 07.12.2019 10:00:00 (CET)Trapani/Birgi, Italia (16429): reduced air pressure: 01.12.2019 10:00:00 - 07.12.2019 10:00:00 (CET)Trapani/Birgi, Italia (16429): visibility: 01.12.2019 10:00:00 - 07.12.2019 10:00:00 (CET)Trapani/Birgi, Italia (16429): ore di luce: 01.12.2019 10:00:00 - 07.12.2019 10:00:00 (CET)
Data & Tempo tt [°C] td [°C] ff [km/h] ff [kn] dd ppp [hPa] vv [km] sd [min]
07.12.2019 10:00:00 16,0 14,0 9 5 SE - 10 -
07.12.2019 09:00:00 13,8 11,7 13 7 SE 1022,9 14 24
07.12.2019 08:00:00 11,4 9,5 9 5 ESE 1022,6 14 0
07.12.2019 07:00:00 11,8 9,9 11 6 ESE 1022,4 15 0
07.12.2019 06:00:00 11,2 7,5 9 5 ESE 1022,2 12 -
07.12.2019 05:00:00 10,6 6,9 13 7 ESE 1022,3 12 -
07.12.2019 04:00:00 10,4 7,1 13 7 SE 1022,3 12 -
07.12.2019 03:00:00 10,8 7,5 8 4 ESE 1022,6 12 -
07.12.2019 02:00:00 11,0 7,3 9 5 ESE 1022,9 12 -
07.12.2019 01:00:00 11,0 7,3 8 4 E 1022,9 12 -
07.12.2019 00:00:00 10,4 6,7 8 4 ESE 1023,2 12 -
06.12.2019 23:00:00 11,0 7,3 9 5 E 1023,2 12 -
06.12.2019 22:00:00 11,2 7,5 13 7 SE 1023,1 12 -
06.12.2019 21:00:00 11,6 7,9 8 4 ESE 1023,1 12 -
06.12.2019 20:00:00 12,8 9,4 9 5 ESE 1023,2 12 -
06.12.2019 19:00:00 14,0 10,6 8 4 ESE 1022,9 14 -
06.12.2019 18:00:00 14,4 11,0 5 3 ESE 1022,6 14 -
06.12.2019 17:00:00 15,0 11,8 5 3 SSO 1022,6 16 -
06.12.2019 16:00:00 16,6 13,1 9 5 OSO 1022,6 16 36
06.12.2019 15:00:00 17,0 13,5 8 4 OSO 1022,9 16 30
06.12.2019 14:00:00 17,2 12,7 9 5 SO 1023,1 16 54
06.12.2019 13:00:00 17,2 13,5 11 6 OSO 1023,5 16 60
06.12.2019 12:00:00 17,2 15,0 8 4 OSO 1023,8 16 60
06.12.2019 11:00:00 16,2 15,1 5 3 OSO 1024,1 16 60
06.12.2019 10:00:00 15,0 14,0 8 4 SE 1024,2 16 24
06.12.2019 09:00:00 12,0 11,2 8 4 ESE 1024,0 12 -
06.12.2019 08:00:00 10,6 9,8 8 4 ESE 1023,2 12 -
06.12.2019 07:00:00 10,8 8,7 8 4 ESE 1023,0 12 0
06.12.2019 06:00:00 11,0 8,9 5 3 ESE 1022,8 15 -
06.12.2019 05:00:00 11,0 8,9 8 4 ESE 1022,7 15 -
06.12.2019 04:00:00 11,0 8,9 9 5 ESE 1022,7 15 -
06.12.2019 03:00:00 11,0 8,9 5 3 ESE 1022,7 15 -
06.12.2019 02:00:00 11,0 8,9 5 3 ESE 1022,6 15 -
06.12.2019 01:00:00 11,0 8,9 4 2 SSE 1022,8 15 -
06.12.2019 00:00:00 13,0 10,9 8 4 ESE 1022,8 18 -
05.12.2019 23:00:00 13,0 10,9 8 4 SE 1023,0 18 -
05.12.2019 22:00:00 13,0 10,9 5 3 SSE 1022,9 18 -
05.12.2019 21:00:00 13,2 10,9 8 4 S 1022,5 20 -
05.12.2019 20:00:00 14,0 11,7 4 2 SSE 1022,2 20 -
05.12.2019 19:00:00 14,0 11,5 8 4 NNE 1021,9 12 -
05.12.2019 18:00:00 15,2 13,2 4 2 SO 1021,2 12 -
05.12.2019 17:00:00 16,6 15,0 8 4 SSO 1020,9 18 24
05.12.2019 16:00:00 18,8 16,8 13 7 S 1020,2 20 60
05.12.2019 15:00:00 19,0 16,4 15 8 S 1020,0 20 60
05.12.2019 14:00:00 20,0 16,0 16 9 S - 10 -
05.12.2019 13:00:00 19,2 15,7 16 9 SSE 1020,0 20 60
05.12.2019 12:00:00 19,0 15,5 21 11 S 1020,1 10 60
05.12.2019 11:00:00 18,6 15,3 21 11 SSE 1020,1 20 60
05.12.2019 10:00:00 16,4 13,5 16 9 ESE 1020,0 25 60
05.12.2019 09:00:00 15,0 12,5 13 7 ESE 1019,1 15 12
05.12.2019 08:00:00 14,6 12,1 18 10 SSE 1018,4 15 0
05.12.2019 07:00:00 14,2 11,7 16 9 SSE 1017,3 12 0
05.12.2019 06:00:00 13,0 11,4 22 12 SSE 1016,8 15 -
05.12.2019 05:00:00 13,2 11,6 15 8 SSE 1016,3 15 -
05.12.2019 04:00:00 14,6 12,8 18 10 S 1015,2 15 -
05.12.2019 03:00:00 14,8 12,3 22 12 S 1014,9 12 -
05.12.2019 02:00:00 15,8 12,4 31 17 SSE 1014,0 10 -
05.12.2019 01:00:00 15,0 12,5 18 10 OSO 1013,1 10 -
05.12.2019 00:00:00 14,8 12,5 52 28 ESE 1012,1 10 -
04.12.2019 23:00:00 15,0 13,4 26 14 SSO 1015,0 10 -
04.12.2019 22:00:00 15,0 12,7 15 8 S 1013,9 12 -
04.12.2019 21:00:00 15,0 13,0 28 15 S 1013,9 15 -
04.12.2019 20:00:00 15,0 12,3 28 15 O 1013,2 15 -
04.12.2019 19:00:00 15,6 13,6 4 2 N 1011,9 18 -
04.12.2019 18:00:00 - - - - - - - -
04.12.2019 17:00:00 - - - - - - - -
04.12.2019 16:00:00 16,8 14,8 13 7 SSE 1013,1 20 0
04.12.2019 15:00:00 17,2 14,7 21 11 SSE 1012,6 20 6
04.12.2019 14:00:00 17,2 14,7 5 3 ONO 1012,0 20 12
04.12.2019 13:00:00 18,2 14,7 9 5 ONO 1012,2 20 54
04.12.2019 12:00:00 18,0 14,3 5 3 ONO 1013,1 20 60
04.12.2019 11:00:00 17,8 15,2 8 4 ONO 1013,9 20 60
04.12.2019 10:00:00 16,8 13,9 4 2 SSE 1014,0 10 60
04.12.2019 09:00:00 14,0 11,5 8 4 SE 1013,8 20 60
04.12.2019 08:00:00 10,0 7,6 9 5 SE 1014,1 20 48
04.12.2019 07:00:00 9,6 7,2 8 4 ESE 1014,2 16 0
04.12.2019 06:00:00 10,0 7,6 9 5 SE 1014,1 14 -
04.12.2019 05:00:00 11,0 8,6 8 4 E 1014,3 12 -
04.12.2019 04:00:00 11,0 8,7 8 4 E 1014,4 10 -
04.12.2019 03:00:00 11,2 8,6 9 5 ESE 1014,7 12 -
04.12.2019 02:00:00 12,0 9,5 9 5 SE 1014,8 12 -
04.12.2019 01:00:00 12,2 9,8 8 4 E 1014,8 12 -
04.12.2019 00:00:00 12,2 9,9 5 3 E 1014,9 10 -
03.12.2019 23:00:00 13,0 10,7 4 2 E 1014,7 12 -
03.12.2019 22:00:00 14,0 11,7 8 4 E 1014,5 10 -
03.12.2019 21:00:00 14,0 11,9 9 5 E 1014,3 12 -
03.12.2019 20:00:00 13,8 11,9 5 3 E 1013,8 12 -
03.12.2019 19:00:00 14,2 12,6 5 3 SSE 1013,3 12 0
03.12.2019 18:00:00 15,0 13,4 5 3 S 1013,0 12 0
03.12.2019 17:00:00 16,8 13,3 8 4 N 1012,3 15 6
03.12.2019 16:00:00 19,8 15,2 5 3 N 1012,1 20 60
03.12.2019 15:00:00 19,8 13,7 16 9 N 1012,3 20 60
03.12.2019 14:00:00 19,0 15,5 15 8 N 1012,4 20 60
03.12.2019 13:00:00 19,8 15,2 15 8 N 1013,2 20 60
03.12.2019 12:00:00 20,0 14,4 8 4 N 1014,0 20 60
03.12.2019 11:00:00 18,0 14,5 8 4 NNO 1014,5 20 24
03.12.2019 10:00:00 18,0 14,1 5 3 NNO 1015,2 16 54
03.12.2019 09:00:00 15,8 13,5 5 3 ENE 1014,1 16 24
03.12.2019 08:00:00 15,0 12,7 5 3 E 1014,0 16 0
03.12.2019 07:00:00 14,0 11,5 8 4 E 1014,1 16 -
03.12.2019 06:00:00 13,8 11,1 11 6 E 1013,2 12 -
03.12.2019 05:00:00 14,0 11,0 9 5 ENE 1013,2 12 -
03.12.2019 04:00:00 14,8 12,0 9 5 ENE 1013,9 12 -
03.12.2019 03:00:00 15,0 12,5 9 5 ENE 1014,0 12 -
03.12.2019 02:00:00 15,0 11,6 11 6 ESE 1014,0 12 -
03.12.2019 01:00:00 15,0 11,8 13 7 ESE 1014,2 12 -
03.12.2019 00:00:00 15,0 12,3 22 12 SE 1014,4 12 -
02.12.2019 23:00:00 15,2 12,5 24 13 SE 1014,7 12 -
02.12.2019 22:00:00 16,0 13,5 15 8 ESE 1015,0 10 -
02.12.2019 21:00:00 16,0 13,5 21 11 SE 1014,9 10 -
02.12.2019 20:00:00 16,2 13,9 24 13 SE 1014,3 12 -
02.12.2019 19:00:00 17,0 14,7 26 14 SE 1014,2 16 -
02.12.2019 18:00:00 17,0 14,8 29 16 SE 1013,6 18 -
02.12.2019 17:00:00 17,0 15,2 34 18 SSE 1013,8 22 30
02.12.2019 16:00:00 18,2 16,4 37 20 SSE 1014,1 22 60
02.12.2019 15:00:00 19,4 17,4 41 22 SSE 1014,2 22 60
02.12.2019 14:00:00 20,0 17,8 44 24 SSE 1014,5 22 60
02.12.2019 13:00:00 20,0 17,6 42 23 SSE 1015,3 10 60
02.12.2019 12:00:00 19,4 16,8 42 23 SSE 1015,9 22 60
02.12.2019 11:00:00 18,8 16,2 42 23 SSE 1016,1 22 -
02.12.2019 10:00:00 17,4 14,7 42 23 SE 1016,1 22 60
02.12.2019 09:00:00 16,2 13,5 39 21 SE 1015,7 20 36
02.12.2019 08:00:00 15,4 12,9 35 19 SE 1015,9 20 0
02.12.2019 07:00:00 15,0 12,9 34 18 SE 1015,6 20 0
02.12.2019 06:00:00 14,8 12,8 37 20 SE 1015,9 20 -
02.12.2019 05:00:00 15,0 12,9 35 19 SE 1015,9 20 -
02.12.2019 04:00:00 14,2 12,1 35 19 SE 1016,2 20 -
02.12.2019 03:00:00 14,2 11,9 29 16 SE 1017,0 20 -
02.12.2019 02:00:00 14,2 11,9 31 17 SE 1017,3 20 -
02.12.2019 01:00:00 14,8 12,1 31 17 SE 1017,9 20 -
02.12.2019 00:00:00 14,6 12,3 35 19 SE 1018,1 20 -
01.12.2019 23:00:00 14,2 11,9 31 17 SE 1018,3 20 -
01.12.2019 22:00:00 15,0 12,7 28 15 SE 1018,8 20 -
01.12.2019 21:00:00 15,0 12,5 26 14 SSE 1019,1 20 -
01.12.2019 20:00:00 15,0 12,5 24 13 SSE 1019,1 20 -
01.12.2019 19:00:00 15,0 12,7 24 13 SSE 1019,1 20 -
01.12.2019 18:00:00 15,0 12,9 24 13 SSE 1019,2 18 -
01.12.2019 17:00:00 15,0 13,0 24 13 SSE 1019,2 18 -
01.12.2019 16:00:00 16,2 14,2 37 20 SSE 1019,3 20 48
01.12.2019 15:00:00 17,2 14,7 31 17 SSE 1019,4 20 60
01.12.2019 14:00:00 17,2 13,1 31 17 SSE 1019,9 20 60
01.12.2019 13:00:00 17,0 11,5 34 18 SSE 1020,2 20 60
01.12.2019 12:00:00 16,6 12,7 28 15 SSE 1021,1 20 60
01.12.2019 11:00:00 15,8 12,4 22 12 SSE 1021,3 20 60
01.12.2019 10:00:00 13,2 10,0 11 6 SE 1021,5 20 60

tt = Temperatura
td = dewpoint
ff = velocità del vento
dd = direzione del vento
ppp = reduced air pressure
vv = visibility
sd = ore di luce

Stazioni seguenti

WeatherPro
AMSI
MeteoEarth